Time,TemperatureF,DewpointF,PressureIn,WindDirection,WindDirectionDegrees,WindSpeedMPH,WindSpeedGustMPH,Humidity,HourlyPrecipIn,Conditions,Clouds,dailyrainin,SolarRadiationWatts/m^2,SoftwareType,DateUTC
2013-03-14 00:02:00,58.0,51.0,-100.00,ENE,69,2.0,8.0,77,0.00,,,0.00,0.000000,,2013-03-14 07:02:00,
2013-03-14 00:11:00,58.0,51.0,-100.00,ENE,69,2.0,8.0,77,0.00,,,0.00,0.000000,,2013-03-14 07:11:00,
2013-03-14 00:32:00,57.0,47.0,-100.00,NE,52,5.0,9.0,68,0.00,,,0.00,0.000000,,2013-03-14 07:32:00,
2013-03-14 00:43:00,57.0,47.0,-100.00,NE,52,5.0,9.0,68,0.00,,,0.00,0.000000,,2013-03-14 07:43:00,
2013-03-14 00:52:00,57.0,47.0,-100.00,NE,52,5.0,9.0,68,0.00,,,0.00,0.000000,,2013-03-14 07:52:00,
2013-03-14 01:02:00,57.0,47.0,-100.00,NE,52,5.0,9.0,68,0.00,,,0.00,0.000000,,2013-03-14 08:02:00,
2013-03-14 01:11:00,57.0,47.0,-100.00,NE,52,5.0,9.0,68,0.00,,,0.00,0.000000,,2013-03-14 08:11:00,
2013-03-14 01:42:00,57.0,47.0,-100.00,ENE,57,5.0,8.0,69,0.00,,,0.00,0.000000,,2013-03-14 08:42:00,
2013-03-14 01:52:00,57.0,47.0,-100.00,ENE,57,5.0,8.0,69,0.00,,,0.00,0.000000,,2013-03-14 08:52:00,
2013-03-14 02:01:00,57.0,47.0,-100.00,ENE,57,5.0,8.0,69,0.00,,,0.00,0.000000,,2013-03-14 09:01:00,
2013-03-14 02:12:00,57.0,47.0,-100.00,ENE,57,5.0,8.0,69,0.00,,,0.00,0.000000,,2013-03-14 09:12:00,
2013-03-14 02:32:00,58.0,50.0,-100.00,ENE,70,7.0,10.0,74,0.00,,,-99.99,0.000000,,2013-03-14 09:32:00,
2013-03-14 02:42:00,58.0,50.0,-100.00,ENE,70,7.0,10.0,74,0.00,,,-99.99,0.000000,,2013-03-14 09:42:00,
2013-03-14 02:52:00,58.0,50.0,-100.00,ENE,70,7.0,10.0,74,0.00,,,-99.99,0.000000,,2013-03-14 09:52:00,
2013-03-14 03:02:00,58.0,50.0,-100.00,ENE,70,7.0,10.0,74,0.00,,,-99.99,0.000000,,2013-03-14 10:02:00,
2013-03-14 03:12:00,58.0,50.0,-100.00,ENE,70,7.0,10.0,74,0.00,,,-99.99,0.000000,,2013-03-14 10:12:00,
2013-03-14 03:32:00,56.0,48.0,-100.00,ENE,64,5.0,9.0,74,0.00,,,-99.99,0.000000,,2013-03-14 10:32:00,
2013-03-14 03:42:00,56.0,48.0,-100.00,ENE,64,5.0,9.0,74,0.00,,,-99.99,0.000000,,2013-03-14 10:42:00,
2013-03-14 03:52:00,56.0,48.0,-100.00,ENE,64,5.0,9.0,74,0.00,,,-99.99,0.000000,,2013-03-14 10:52:00,
2013-03-14 04:02:00,56.0,48.0,-100.00,ENE,64,5.0,9.0,74,0.00,,,-99.99,0.000000,,2013-03-14 11:02:00,
2013-03-14 04:12:00,56.0,48.0,-100.00,ENE,64,5.0,9.0,74,0.00,,,-99.99,0.000000,,2013-03-14 11:12:00,
2013-03-14 04:33:00,56.0,48.0,-100.00,NE,53,4.0,7.0,75,0.00,,,0.00,0.000000,,2013-03-14 11:33:00,
2013-03-14 04:42:00,56.0,48.0,-100.00,NE,53,4.0,7.0,75,0.00,,,0.00,0.000000,,2013-03-14 11:42:00,
2013-03-14 04:52:00,56.0,48.0,-100.00,NE,53,4.0,7.0,75,0.00,,,0.00,0.000000,,2013-03-14 11:52:00,
2013-03-14 05:01:00,56.0,48.0,-100.00,NE,53,4.0,7.0,75,0.00,,,0.00,0.000000,,2013-03-14 12:01:00,
2013-03-14 05:11:00,56.0,48.0,-100.00,NE,53,4.0,7.0,75,0.00,,,0.00,0.000000,,2013-03-14 12:11:00,
2013-03-14 05:33:00,55.0,43.0,-100.00,ENE,71,5.0,7.0,64,0.00,,,0.00,0.000000,,2013-03-14 12:33:00,
2013-03-14 05:42:00,55.0,43.0,-100.00,ENE,71,5.0,7.0,64,0.00,,,0.00,0.000000,,2013-03-14 12:42:00,
2013-03-14 05:52:00,55.0,43.0,-100.00,ENE,71,5.0,7.0,64,0.00,,,0.00,0.000000,,2013-03-14 12:52:00,
2013-03-14 06:02:00,55.0,43.0,-100.00,ENE,71,5.0,7.0,64,0.00,,,0.00,0.000000,,2013-03-14 13:02:00,
2013-03-14 06:12:00,55.0,43.0,-100.00,ENE,71,5.0,7.0,64,0.00,,,0.00,0.000000,,2013-03-14 13:12:00,
2013-03-14 06:32:00,54.0,42.0,-100.00,ENE,63,6.0,9.0,63,0.00,,,0.00,0.000000,,2013-03-14 13:32:00,
2013-03-14 06:43:00,54.0,42.0,-100.00,ENE,63,6.0,9.0,63,0.00,,,0.00,0.000000,,2013-03-14 13:43:00,
2013-03-14 06:52:00,54.0,42.0,-100.00,ENE,63,6.0,9.0,63,0.00,,,0.00,0.000000,,2013-03-14 13:52:00,
2013-03-14 07:02:00,54.0,42.0,-100.00,ENE,63,6.0,9.0,63,0.00,,,0.00,0.000000,,2013-03-14 14:02:00,
2013-03-14 07:12:00,54.0,42.0,-100.00,ENE,63,6.0,9.0,63,0.00,,,0.00,0.000000,,2013-03-14 14:12:00,
2013-03-14 07:42:00,54.0,42.0,-100.00,NE,40,3.0,9.0,63,0.00,,,0.00,1.000000,,2013-03-14 14:42:00,
2013-03-14 07:53:00,54.0,42.0,-100.00,NE,40,3.0,9.0,63,0.00,,,0.00,1.000000,,2013-03-14 14:53:00,
2013-03-14 08:02:00,54.0,42.0,-100.00,NE,40,3.0,9.0,63,0.00,,,0.00,1.000000,,2013-03-14 15:02:00,
2013-03-14 08:12:00,54.0,42.0,-100.00,NE,40,3.0,9.0,63,0.00,,,0.00,1.000000,,2013-03-14 15:12:00,
2013-03-14 08:33:00,57.0,42.0,-100.00,NE,48,4.0,8.0,58,0.00,,,-99.99,42.000000,,2013-03-14 15:33:00,
2013-03-14 08:43:00,57.0,42.0,-100.00,NE,48,4.0,8.0,58,0.00,,,-99.99,42.000000,,2013-03-14 15:43:00,
2013-03-14 08:52:00,57.0,42.0,-100.00,NE,48,4.0,8.0,58,0.00,,,-99.99,42.000000,,2013-03-14 15:52:00,
2013-03-14 09:02:00,57.0,42.0,-100.00,NE,48,4.0,8.0,58,0.00,,,-99.99,42.000000,,2013-03-14 16:02:00,
2013-03-14 09:12:00,57.0,42.0,-100.00,NE,48,4.0,8.0,58,0.00,,,-99.99,42.000000,,2013-03-14 16:12:00,
2013-03-14 09:33:00,69.0,49.0,-100.00,ENE,59,0.0,5.0,49,0.00,,,0.00,286.000000,,2013-03-14 16:33:00,
2013-03-14 09:52:00,69.0,49.0,-100.00,ENE,59,0.0,5.0,49,0.00,,,0.00,286.000000,,2013-03-14 16:52:00,
2013-03-14 10:02:00,69.0,49.0,-100.00,ENE,59,0.0,5.0,49,0.00,,,0.00,286.000000,,2013-03-14 17:02:00,
2013-03-14 10:12:00,69.0,49.0,-100.00,ENE,59,0.0,5.0,49,0.00,,,0.00,286.000000,,2013-03-14 17:12:00,
2013-03-14 10:33:00,75.0,50.0,-100.00,NNW,346,4.0,5.0,42,-99.99,,,0.00,465.000000,,2013-03-14 17:33:00,
2013-03-14 11:02:00,75.0,50.0,-100.00,NNW,346,4.0,5.0,42,-99.99,,,0.00,465.000000,,2013-03-14 18:02:00,
2013-03-14 11:12:00,75.0,50.0,-100.00,NNW,346,4.0,5.0,42,-99.99,,,0.00,465.000000,,2013-03-14 18:12:00,
2013-03-14 11:33:00,76.0,54.0,-100.00,West,278,5.0,7.0,47,0.00,,,0.00,643.000000,,2013-03-14 18:33:00,
2013-03-14 12:02:00,76.0,54.0,-100.00,West,278,5.0,7.0,47,0.00,,,0.00,643.000000,,2013-03-14 19:02:00,
2013-03-14 12:12:00,76.0,54.0,-100.00,West,278,5.0,7.0,47,0.00,,,0.00,643.000000,,2013-03-14 19:12:00,
2013-03-14 13:42:00,79.0,55.0,-100.00,WNW,285,4.0,10.0,44,-99.99,,,0.00,681.000000,,2013-03-14 20:42:00,
2013-03-14 13:52:00,79.0,55.0,-100.00,WNW,285,4.0,10.0,44,-99.99,,,0.00,681.000000,,2013-03-14 20:52:00,
2013-03-14 14:02:00,79.0,55.0,-100.00,WNW,285,4.0,10.0,44,-99.99,,,0.00,681.000000,,2013-03-14 21:02:00,
2013-03-14 14:12:00,79.0,55.0,-100.00,WNW,285,4.0,10.0,44,-99.99,,,0.00,681.000000,,2013-03-14 21:12:00,
2013-03-14 14:43:00,79.0,56.0,-100.00,North,6,5.0,8.0,46,0.00,,,0.00,705.000000,,2013-03-14 21:43:00,
2013-03-14 14:53:00,79.0,56.0,-100.00,North,6,5.0,8.0,46,0.00,,,0.00,705.000000,,2013-03-14 21:53:00,
2013-03-14 15:03:00,79.0,56.0,-100.00,North,6,5.0,8.0,46,0.00,,,0.00,705.000000,,2013-03-14 22:03:00,
2013-03-14 15:42:00,82.0,58.0,-100.00,West,281,4.0,8.0,44,0.00,,,0.00,679.000000,,2013-03-14 22:42:00,
2013-03-14 15:52:00,82.0,58.0,-100.00,West,281,4.0,8.0,44,0.00,,,0.00,679.000000,,2013-03-14 22:52:00,
2013-03-14 16:02:00,82.0,58.0,-100.00,West,281,4.0,8.0,44,0.00,,,0.00,679.000000,,2013-03-14 23:02:00,
2013-03-14 16:33:00,78.0,56.0,-100.00,West,280,5.0,9.0,46,0.00,,,0.00,512.000000,,2013-03-14 23:33:00,
2013-03-14 16:43:00,78.0,56.0,-100.00,West,280,5.0,9.0,46,0.00,,,0.00,512.000000,,2013-03-14 23:43:00,
2013-03-14 16:53:00,78.0,56.0,-100.00,West,280,5.0,9.0,46,0.00,,,0.00,512.000000,,2013-03-14 23:53:00,
2013-03-14 17:02:00,78.0,56.0,-100.00,West,280,5.0,9.0,46,0.00,,,0.00,512.000000,,2013-03-15 00:02:00,
2013-03-14 17:12:00,78.0,56.0,-100.00,West,280,5.0,9.0,46,0.00,,,0.00,512.000000,,2013-03-15 00:12:00,
2013-03-14 17:32:00,78.0,58.0,-100.00,NW,319,3.0,9.0,50,0.00,,,0.00,332.000000,,2013-03-15 00:32:00,
2013-03-14 17:42:00,78.0,58.0,-100.00,NW,319,3.0,9.0,50,0.00,,,0.00,332.000000,,2013-03-15 00:42:00,
2013-03-14 17:52:00,78.0,58.0,-100.00,NW,319,3.0,9.0,50,0.00,,,0.00,332.000000,,2013-03-15 00:52:00,
2013-03-14 18:02:00,78.0,58.0,-100.00,NW,319,3.0,9.0,50,0.00,,,0.00,332.000000,,2013-03-15 01:02:00,
2013-03-14 18:11:00,78.0,58.0,-100.00,NW,319,3.0,9.0,50,0.00,,,0.00,332.000000,,2013-03-15 01:11:00,
2013-03-14 18:32:00,74.0,58.0,-100.00,West,259,3.0,6.0,58,0.00,,,0.00,135.000000,,2013-03-15 01:32:00,
2013-03-14 18:43:00,74.0,58.0,-100.00,West,259,3.0,6.0,58,0.00,,,0.00,135.000000,,2013-03-15 01:43:00,
2013-03-14 18:52:00,74.0,58.0,-100.00,West,259,3.0,6.0,58,0.00,,,0.00,135.000000,,2013-03-15 01:52:00,
2013-03-14 19:02:00,74.0,58.0,-100.00,West,259,3.0,6.0,58,0.00,,,0.00,135.000000,,2013-03-15 02:02:00,
2013-03-14 19:11:00,74.0,58.0,-100.00,West,259,3.0,6.0,58,0.00,,,0.00,135.000000,,2013-03-15 02:11:00,
2013-03-14 19:32:00,68.0,58.0,-100.00,NE,37,3.0,5.0,70,0.00,,,0.00,27.000000,,2013-03-15 02:32:00,
2013-03-14 19:42:00,68.0,58.0,-100.00,NE,37,3.0,5.0,70,0.00,,,0.00,27.000000,,2013-03-15 02:42:00,
2013-03-14 19:52:00,68.0,58.0,-100.00,NE,37,3.0,5.0,70,0.00,,,0.00,27.000000,,2013-03-15 02:52:00,
2013-03-14 20:02:00,68.0,58.0,-100.00,NE,37,3.0,5.0,70,0.00,,,0.00,27.000000,,2013-03-15 03:02:00,
2013-03-14 20:11:00,68.0,58.0,-100.00,NE,37,3.0,5.0,70,0.00,,,0.00,27.000000,,2013-03-15 03:11:00,
2013-03-14 20:33:00,63.0,58.0,-100.00,ENE,69,6.0,9.0,83,0.00,,,0.00,0.000000,,2013-03-15 03:33:00,
2013-03-14 20:43:00,63.0,58.0,-100.00,ENE,69,6.0,9.0,83,0.00,,,0.00,0.000000,,2013-03-15 03:43:00,
2013-03-14 20:53:00,63.0,58.0,-100.00,ENE,69,6.0,9.0,83,0.00,,,0.00,0.000000,,2013-03-15 03:53:00,
2013-03-14 21:03:00,63.0,58.0,-100.00,ENE,69,6.0,9.0,83,0.00,,,0.00,0.000000,,2013-03-15 04:03:00,
2013-03-14 21:12:00,63.0,58.0,-100.00,ENE,69,6.0,9.0,83,0.00,,,0.00,0.000000,,2013-03-15 04:12:00,
2013-03-14 21:33:00,62.0,57.0,-100.00,ENE,57,5.0,8.0,83,0.00,,,0.00,0.000000,,2013-03-15 04:33:00,
2013-03-14 21:43:00,62.0,57.0,-100.00,ENE,57,5.0,8.0,83,0.00,,,0.00,0.000000,,2013-03-15 04:43:00,
2013-03-14 21:53:00,62.0,57.0,-100.00,ENE,57,5.0,8.0,83,0.00,,,0.00,0.000000,,2013-03-15 04:53:00,
2013-03-14 22:02:00,62.0,57.0,-100.00,ENE,57,5.0,8.0,83,0.00,,,0.00,0.000000,,2013-03-15 05:02:00,
2013-03-14 22:12:00,62.0,57.0,-100.00,ENE,57,5.0,8.0,83,0.00,,,0.00,0.000000,,2013-03-15 05:12:00,
2013-03-14 22:32:00,62.0,57.0,-100.00,NNE,22,3.0,9.0,84,0.00,,,0.00,0.000000,,2013-03-15 05:32:00,
2013-03-14 22:42:00,62.0,57.0,-100.00,NNE,22,3.0,9.0,84,0.00,,,0.00,0.000000,,2013-03-15 05:42:00,
2013-03-14 22:52:00,62.0,57.0,-100.00,NNE,22,3.0,9.0,84,0.00,,,0.00,0.000000,,2013-03-15 05:52:00,
2013-03-14 23:02:00,62.0,57.0,-100.00,NNE,22,3.0,9.0,84,0.00,,,0.00,0.000000,,2013-03-15 06:02:00,
2013-03-14 23:12:00,62.0,57.0,-100.00,NNE,22,3.0,9.0,84,0.00,,,0.00,0.000000,,2013-03-15 06:12:00,
2013-03-14 23:32:00,62.0,58.0,-100.00,ENE,59,2.0,5.0,86,0.00,,,0.00,0.000000,,2013-03-15 06:32:00,
2013-03-14 23:42:00,62.0,58.0,-100.00,ENE,59,2.0,5.0,86,0.00,,,0.00,0.000000,,2013-03-15 06:42:00,
2013-03-14 23:53:00,62.0,58.0,-100.00,ENE,59,2.0,5.0,86,0.00,,,0.00,0.000000,,2013-03-15 06:53:00,